TimeMDT,TemperatureF,Dew PointF,Humidity,Sea Level PressureIn,VisibilityMPH,Wind Direction,Wind SpeedMPH,Gust SpeedMPH,PrecipitationIn,Events,Conditions,WindDirDegrees,DateUTC
12:56 AM,24.1,15.1,69,30.22,-9999.0,Calm,Calm,-,N/A,,Unknown,0,2012-10-05 06:56:00
1:56 AM,23.0,16.0,74,30.22,-9999.0,Variable,4.6,-,N/A,,Unknown,0,2012-10-05 07:56:00
2:56 AM,21.9,15.1,75,30.23,-9999.0,Variable,3.5,-,N/A,,Unknown,0,2012-10-05 08:56:00
3:56 AM,21.0,15.1,78,30.23,-9999.0,Variable,3.5,-,N/A,,Unknown,0,2012-10-05 09:56:00
4:56 AM,21.0,15.1,78,30.23,-9999.0,Variable,4.6,-,N/A,,Unknown,0,2012-10-05 10:56:00
5:56 AM,21.0,15.1,78,30.25,-9999.0,Variable,4.6,-,N/A,,Unknown,0,2012-10-05 11:56:00
6:56 AM,21.0,15.1,78,30.27,-9999.0,NNW,4.6,-,N/A,,Unknown,340,2012-10-05 12:56:00
7:56 AM,19.9,14.0,78,30.30,-9999.0,Calm,Calm,-,N/A,,Unknown,0,2012-10-05 13:56:00
8:56 AM,23.0,15.1,72,30.31,-9999.0,Calm,Calm,-,N/A,,Unknown,0,2012-10-05 14:56:00
9:56 AM,30.0,17.1,59,30.28,-9999.0,Variable,4.6,-,N/A,,Unknown,0,2012-10-05 15:56:00
10:56 AM,32.0,17.1,54,30.28,-9999.0,Variable,3.5,-,N/A,,Unknown,0,2012-10-05 16:56:00
11:56 AM,33.1,17.1,52,30.28,-9999.0,Variable,3.5,-,N/A,,Unknown,0,2012-10-05 17:56:00
12:56 PM,37.0,17.1,44,30.25,-9999.0,Variable,4.6,-,N/A,,Unknown,0,2012-10-05 18:56:00
1:56 PM,36.0,17.1,46,30.24,-9999.0,Variable,3.5,-,N/A,,Unknown,0,2012-10-05 19:56:00
2:56 PM,39.0,8.1,28,30.21,-9999.0,Variable,4.6,-,N/A,,Unknown,0,2012-10-05 20:56:00
3:56 PM,39.9,8.1,27,30.20,-9999.0,NW,8.1,-,N/A,,Unknown,320,2012-10-05 21:56:00
4:56 PM,36.0,10.9,36,30.24,-9999.0,Variable,6.9,18.4,N/A,,Unknown,0,2012-10-05 22:56:00
5:56 PM,32.0,8.1,37,30.28,-9999.0,NNW,8.1,16.1,N/A,,Unknown,330,2012-10-05 23:56:00
6:56 PM,28.0,10.0,47,30.32,-9999.0,Variable,5.8,-,N/A,,Unknown,0,2012-10-06 00:56:00
7:56 PM,26.1,10.0,51,30.37,-9999.0,Variable,5.8,-,N/A,,Unknown,0,2012-10-06 01:56:00
8:56 PM,24.1,12.0,60,30.38,-9999.0,Variable,3.5,-,N/A,,Unknown,0,2012-10-06 02:56:00
9:56 PM,21.9,12.0,66,30.36,-9999.0,Calm,Calm,-,N/A,,Unknown,0,2012-10-06 03:56:00
10:56 PM,21.0,10.0,63,30.35,-9999.0,Variable,4.6,-,N/A,,Unknown,0,2012-10-06 04:56:00
11:56 PM,19.9,10.0,65,30.35,-9999.0,Calm,Calm,-,N/A,,Unknown,0,2012-10-06 05:56:00